Location: Corralito
(10.2667°N, 66.9500°W)
Time: 09:51:46
(UTC+00:00)

GPS 2-15 Rocket1 - Pass Details

Date: 12 December 2023
Orbit: 617 x 666 km, 19.8° (Epoch: 02 March)

Event Time Altitude Azimuth Distance (km) Brightness Sun altitude
Exits shadow 07:54:49 15° 104° (ESE) 1,677 5.9 -37.6°
Drops below altitude 10° 07:55:35 10° 105° (ESE) 1,970 6.4 -37.4°
Sets 07:57:57 0° 106° (ESE) 2,881 7.5 -36.9°
